Location: Winthrop
(48.4780°N, 120.1850°W)
Time: 08:42:49
(UTC-08:00)

deb Explorer IX - Visible Passes

Search period start: 29 January 2023 00:00
Search period end: 08 February 2023 00:00
Orbit: 534 x 1049 km, 38.8° (Epoch: 29 January)

Date Brightness Start Highest point End Pass type
(mag) Time Alt. Az. Time Alt. Az. Time Alt. Az.
29 Jan ? 06:32:15 10° SSW 06:34:53 17° SSE 06:37:35 10° SE visible
30 Jan ? 06:00:01 10° SSW 06:02:31 16° SSE 06:05:01 10° SE visible
31 Jan ? 05:28:06 11° SSW 05:30:06 15° SSE 05:32:28 10° SE visible
01 Feb ? 04:57:24 14° SSE 04:57:41 14° SSE 04:59:55 10° SE visible
01 Feb ? 06:39:49 10° SW 06:42:53 21° S 06:45:59 10° SE visible
02 Feb ? 04:26:36 12° SE 04:26:36 12° SE 04:27:22 10° SE visible
02 Feb ? 06:07:21 10° SW 06:10:26 21° S 06:13:30 10° SE visible
03 Feb ? 05:36:24 17° SSW 05:37:59 21° S 05:41:02 10° SE visible
04 Feb ? 05:05:29 21° S 05:05:29 21° S 05:08:33 10° SE visible
04 Feb ? 06:48:01 10° SW 06:50:43 17° SSW 06:53:25 10° SSE visible
05 Feb ? 04:34:32 17° SE 04:34:32 17° SE 04:36:05 10° SE visible
05 Feb ? 06:15:23 10° SW 06:18:13 18° SSW 06:21:01 10° SSE visible
06 Feb ? 04:03:34 10° SE 04:03:34 10° SE 04:03:37 10° SE visible
06 Feb ? 05:44:12 16° SW 05:45:42 19° SSW 05:48:36 10° SE visible
07 Feb ? 05:13:13 20° S 05:13:13 20° S 05:16:11 10° SE visible
